Hourly Data Report for October 29, 2014

All times are specified in Local Standard Time (LST). Add 1 hour to adjust for Daylight Saving Time where and when it is observed.

IQALUIT CLIMATE
NUNAVUT

63°44'50.000" N
68°32'40.000" W
33.50 m
2402592
71321
XFB

Download Data

Hourly Data (October 2014)
Hourly Data Report for October 29, 2014
Temp Definition
°C
Dew Point Temp Definition
°C
Rel Hum Definition
%
Wind Dir Definition
10's deg

Wind Spd Definition
km/h
Visibility Definition
km
Stn Press Definition
kPa
Hmdx Definition


Wind Chill Definition


Weather Definition


TIME
00:00 -0.4 -0.7 97 15 19   100.71   -6 LegendNANA
01:00 -0.4 -0.7 98 14 13   100.74   -5 LegendNANA
02:00 -0.5 -0.7 98 15 6   100.75   -3 LegendNANA
03:00 -0.5 -0.7 98 15 4   100.74   -2 LegendNANA
04:00 -0.8 -0.9 99   0   100.73     LegendNANA
05:00 -1.1 -1.2 99 35 4   100.73   -2 LegendNANA
06:00 -1.5 -2.2 95 35 9   100.70   -5 LegendNANA
07:00 -1.1 -2.6 90 35 7   100.69   -4 LegendNANA
08:00 -1.6 -2.6 93 27 3   100.68   -3 LegendNANA
09:00 -1.9 -2.7 94 33 2   100.62   -3 LegendNANA
10:00 -1.9 -2.8 94 32 6   100.60   -4 LegendNANA
11:00 -1.9 -2.8 94 33 11   100.59   -6 LegendNANA
12:00 -2.1 -3.2 92 33 14   100.60   -7 LegendNANA
13:00 -2.2 -3.1 94 36 15   100.55   -7 LegendNANA
14:00 -2.5 -3.5 93 33 12   100.54   -7 LegendNANA
15:00 -3.0 -3.9 93 33 15   100.52   -8 LegendNANA
16:00 -2.9 -3.8 93 32 13   100.49   -8 LegendNANA
17:00 -2.8 -3.6 94 33 12   100.47   -7 LegendNANA
18:00 -3.1 -3.9 94 33 11   100.42   -7 LegendNANA
19:00 -3.0 -3.9 93 32 11   100.36   -7 LegendNANA
20:00 -2.9 -3.6 95 32 8   100.35   -6 LegendNANA
21:00 -3.0 -3.5 97 33 6   100.30   -5 LegendNANA
22:00 -2.7 -3.1 97 33 3   100.26   -4 LegendNANA
23:00 -2.6 -2.9 98 34 4   100.20   -4 LegendNANA

Notes on Data Quality.

Legend

  • E = Estimated
  • M = Missing
  • NA = Not Available
  • ‡ = Partner data that is not subject to review by the National Climate Archives
Date modified: